Date,TemperatureHighF,TemperatureAvgF,TemperatureLowF,DewpointHighF,DewpointAvgF,DewpointLowF,HumidityHigh,HumidityAvg,HumidityLow,PressureMaxIn,PressureMinIn,WindSpeedMaxMPH,WindSpeedAvgMPH,GustSpeedMaxMPH,PrecipitationSumIn
2013-1-1,55,47,38,55,44,34,97,92,82,30.26,29.97,12,3,17,0.07
2013-1-2,42,36,31,34,30,27,88,78,61,30.36,30.25,9,3,0,0.00
2013-1-3,42,37,30,32,30,26,87,75,64,30.49,30.35,9,2,0,0.00
2013-1-4,41,37,33,37,35,31,96,91,69,30.55,30.41,6,1,0,0.20
2013-1-5,53,43,38,43,39,36,96,88,64,30.44,30.25,7,1,0,0.02
2013-1-6,56,45,35,39,34,29,95,68,37,30.43,30.31,12,3,14,0.01
2013-1-7,54,45,36,39,33,28,73,63,48,30.35,30.09,9,1,0,0.00
2013-1-8,50,48,45,49,46,39,97,94,73,30.09,29.89,12,2,0,0.99
2013-1-9,57,53,49,55,52,48,98,96,92,30.03,29.84,15,4,17,1.32
2013-1-10,63,53,45,52,46,42,97,79,51,30.05,29.98,20,4,22,0.01
2013-1-11,71,59,50,63,53,42,95,80,64,30.01,29.81,25,10,30,0.00
2013-1-12,65,65,65,64,64,63,96,95,94,29.83,29.80,13,7,18,0.00
2013-1-14,48,42,37,31,29,26,72,60,48,30.27,30.14,15,5,18,0.00
2013-1-15,39,34,32,33,31,25,95,87,69,30.29,30.12,13,4,17,0.03
2013-1-16,50,38,28,25,21,15,75,52,25,30.39,30.23,16,4,18,0.00
2013-1-17,62,49,37,37,30,19,70,50,34,30.51,30.31,12,3,13,0.00
2013-1-18,63,51,40,36,33,31,71,52,32,30.52,30.33,12,3,13,0.00
2013-1-19,66,52,42,47,42,34,96,70,45,30.34,30.16,17,7,23,0.00
2013-1-20,72,58,47,51,45,41,90,66,35,30.25,30.09,14,5,16,0.00
2013-1-21,70,58,48,51,47,42,88,70,48,30.24,30.12,13,3,16,0.00
2013-1-22,70,56,44,51,45,37,80,67,50,30.31,30.20,17,3,20,0.00
2013-1-23,72,60,49,58,52,48,96,78,57,30.33,30.19,18,6,22,0.00
2013-1-24,77,66,59,61,59,55,94,79,55,30.23,30.08,18,8,24,0.00
2013-1-25,78,66,55,61,58,50,93,79,53,30.13,30.01,23,8,25,0.00
2013-1-26,62,54,48,58,51,47,97,92,83,30.18,30.07,7,1,0,0.00
2013-1-27,76,65,55,64,61,53,96,86,64,30.11,29.94,22,9,26,0.00
2013-1-28,74,69,66,65,64,64,92,85,72,30.00,29.85,26,10,30,0.00
2013-1-29,79,68,56,66,57,25,95,72,31,29.85,29.49,24,9,28,0.02
2013-1-30,56,50,43,29,20,15,57,32,21,30.22,29.77,33,6,33,0.00
2013-1-31,66,52,41,24,19,14,37,29,17,30.31,30.19,18,6,22,0.00